User: anonymous   Login
Location: Angola by the Bay
(38.6709°N, 75.1746°W)
Time: 19:32:38
(UTC+00:00)
Language:

TIGRISAT - Orbit

View from above orbital plane
View from above orbital plane
View from above satellite
View from above satellite

Ground track
Ground track

The orbit data is extracted from the following two-line orbital elements,

1 40043U 14033AK  24340.40475965  .00006046  00000-0  76450-3 0  9996
2 40043  97.7114 136.1828 0054297 104.8593 255.8643 14.81143733562784
Epoch (UTC): 05 December 2024 09:42:51
Eccentricity: 0.0054297
inclination: 97.7114°
perigee height: 587 km
apogee height: 664 km
right ascension of ascending node: 136.1828°
argument of perigee: 104.8593°
revolutions per day: 14.81143733
mean anomaly at epoch: 255.8643°
orbit number at epoch: 56278

The dashed part of the orbit path shows where the satellite is in the earth's shadow,  

DLR